Location: Saratoga Springs
(43.0831°N, 73.7850°W)
Time: 03:00:49
(UTC-04:00)

Vanguard 2 - Pass Details

Date: 26 April 2024
Orbit: 552 x 2901 km, 32.9° (Epoch: 12 May)

Event Time Altitude Azimuth Distance (km) Brightness Sun altitude
Rises 06:44:23 0° 277° (W) 6,508 11.6 7.8°
Reaches altitude 10° 06:49:09 10° 269° (W) 5,642 11.3 8.7°
Maximum altitude 07:03:41 34° 214° (SW) 4,005 10.9 11.3°
Drops below altitude 10° 07:16:51 10° 157° (SSE) 5,070 12.0 13.7°
Sets 07:20:53 0° 149° (SSE) 5,793 12.4 14.4°
